DW0826 Weather Reports


Display with metric or nautical units.
time (UTC)temp
F
wind
direction
speed
MPH
gust
MPH
rain 1hr
in
rain 24hr
in
rain mn
in
humidity
%
barometer
mb
20200330070205 35 259 1.0 7.0 0.00 0.18 0.00 88 1023.7
20200330063205 36 294 4.0 9.0 0.00 0.18 0.00 87 1023.3
20200330060208 35 5 4.0 9.0 0.00 0.18 0.00 87 1023.4
20200330053208 35 306 2.0 7.0 0.00 0.18 0.00 88 1023.4
20200330050208 36 306 3.0 8.0 0.00 0.18 0.00 87 1023.2
20200330043205 36 287 2.0 4.0 0.00 0.18 0.00 88 1022.9
20200330040202 35 274 3.0 4.0 0.00 0.18 0.00 89 1022.3
20200330033208 35 202 0.0 6.0 0.01 0.18 0.00 91 1021.9
20200330030202 35 355 3.0 11.0 0.01 0.18 0.00 91 1021.9
20200330023202 35 355 5.0 8.0 0.04 0.16 0.00 91 1021.9
20200330020205 35 330 5.0 9.0 0.07 0.16 0.00 90 1021.9
20200330013202 37 303 8.0 11.0 0.04 0.13 0.00 88 1021.9
20200330010208 38 338 6.0 10.0 0.02 0.10 0.00 88 1021.6
20200330003202 38 296 2.0 5.0 0.04 0.09 0.00 90 1021.5
20200330000205 38 260 2.0 4.0 0.04 0.09 0.00 89 1021.3
20200329233202 38 279 2.0 12.0 0.02 0.08 0.00 86 1021.3
20200329230205 41 138 7.0 8.0 0.00 0.06 0.00 84 1020.5
20200329223208 41 173 1.0 9.0 0.00 0.08 0.00 80 1020.4
20200329220202 42 243 5.0 8.0 0.00 0.09 0.00 81 1020.3
20200329213205 41 46 2.0 8.0 0.00 0.11 0.00 84 1020.3
20200329210208 40 164 5.0 9.0 0.00 0.17 0.00 86 1020.4
20200329203208 39 225 1.0 6.0 0.00 0.18 0.00 87 1020.5
20200329200205 38 199 3.0 9.0 0.00 0.18 0.00 86 1020.5
20200329193205 39 88 2.0 8.0 0.00 0.18 0.00 88 1020.6
20200329190205 38 157 3.0 10.0 0.00 0.18 0.00 89 1020.3
20200329183208 38 97 2.0 5.0 0.00 0.18 0.00 90 1020.4
20200329180202 37 150 3.0 7.0 0.00 0.18 0.00 89 1020.2
20200329173202 38 157 1.0 5.0 0.00 0.18 0.00 92 1020.1
20200329170205 35 108 0.0 3.0 0.02 0.18 0.00 93 1019.9
20200329163208 34 150 0.0 5.0 0.03 0.18 0.00 93 1019.9
20200329160202 34 190 0.0 0.0 0.01 0.16 0.00 93 1019.8
20200329153205 33 190 0.0 0.0 0.00 0.15 0.00 93 1019.6
20200329150202 33 190 0.0 0.0 0.00 0.15 0.00 92 1019.5
20200329143208 33 190 0.0 0.0 0.00 0.15 0.00 92 1019.3
20200329140205 33 191 0.0 0.0 0.00 0.15 0.00 90 1018.8
20200329133202 33 216 0.0 0.0 0.00 0.15 0.00 91 1018.3
20200329130205 33 216 0.0 0.0 0.00 0.15 0.00 91 1018.6
20200329123208 33 216 0.0 0.0 0.00 0.15 0.00 90 1018.5
20200329120208 33 212 0.0 3.0 0.00 0.15 0.00 89 1018.7
20200329113202 33 217 1.0 4.0 0.00 0.15 0.00 89 1018.8
20200329110205 33 229 0.0 0.0 0.00 0.15 0.00 89 1019.0
20200329103208 33 229 0.0 0.0 0.00 0.15 0.00 88 1019.3
20200329100202 34 229 0.0 3.0 0.00 0.15 0.00 87 1019.4
20200329093202 34 229 1.0 4.0 0.00 0.15 0.00 87 1019.7
20200329090208 34 214 3.0 3.0 0.00 0.15 0.00 87 1020.0
20200329083205 33 234 2.0 3.0 0.00 0.15 0.00 86 1020.1
20200329080208 33 233 0.0 3.0 0.00 0.15 0.00 87 1020.4
20200329073208 34 232 2.0 4.0 0.00 0.15 0.00 86 1020.6